Regional Weather Roundup
Issued by NWS

Home | Current Version | Previous Version | Text Only | Print | Product List | Glossary Off
Versions: 1 2 3 4 5 6 7 8 9 10 11 12 13 14 15 16 17 18 19 20 21 22 23 24 25 26 27 28 29 30 31 32 33 34 35 36 37 38 39 40 41 42 43 44 45 46 47 48 49 50

373
ASUS43 KFSD 221810
RWRSD

WEATHER ROUNDUP FOR SOUTH DAKOTA
NATIONAL WEATHER SERVICE SIOUX FALLS SD
100 PM CDT SUN OCT 22 2017

NOTE: "FAIR" INDICATES FEW OR NO CLOUDS BELOW 12,000 FEET WITH NO
SIGNIFICANT WEATHER AND/OR OBSTRUCTIONS TO VISIBILITY.


SDZ001>005-009-010-012>017-221900-
NORTHWEST AND NORTH CENTRAL SOUTH DAKOTA

CITY           SKY/WX    TMP DP  RH WIND       PRES   REMARKS
BUFFALO          N/A     63  26  24 W24G31    29.75F
MOBRIDGE       SUNNY     63  30  28 S16G25    29.83F
$$

SDZ012>016-024>037-041>051-057-063-072>074-221900-
SOUTHWEST AND SOUTH CENTRAL SOUTH DAKOTA

CITY           SKY/WX    TMP DP  RH WIND       PRES   REMARKS
RAPID CTY ARPT SUNNY     64  23  21 SE10      29.90F
PIERRE         SUNNY     57  31  37 SW8       29.89F
CUSTER         SUNNY     52  22  30 W15       30.00S
ELLSWORTH AFB  SUNNY     65  24  21 S10       29.89F
PHILIP         SUNNY     63  27  25 SW15      29.92F
PINE RIDGE     SUNNY     63  26  24 W13G25    29.98F
SPEARFISH      FAIR      63  28  27 W13G20    29.88F
WINNER         FAIR      64  28  25 SW21G28   29.96F
$$

SDZ004>011-016>023-039-040-221900-
NORTHEAST SOUTH DAKOTA

CITY           SKY/WX    TMP DP  RH WIND       PRES   REMARKS
ABERDEEN       SUNNY     64  31  28 SW20G29   29.90F
WATERTOWN      SUNNY     60  29  30 SW21G28   29.94F
BROOKINGS      SUNNY     61  30  31 SW16      29.98F
SISSETON         N/A     63  29  27 SW22      29.91F
$$

SDZ017-020-022-023-036>040-048>070-221900-
SOUTHEAST SOUTH DAKOTA

CITY           SKY/WX    TMP DP  RH WIND       PRES   REMARKS
SIOUX FALLS    SUNNY     62  35  36 SW12G18   30.02F
HURON          SUNNY     63  32  31 S22G29    29.94F
CHAMBERLAIN    SUNNY     61  32  33 SW15      29.95F
MITCHELL       SUNNY     64  32  30 S18       29.97F
YANKTON        SUNNY     65  32  29 SW13G18   30.01F
$$

ABBREVIATIONS USED IN REMARKS
   TC - TEMPERATURE IN CELSIUS
  WCI - WIND CHILL INDEX
   HX - HEAT INDEX
  VSB - VISIBILITY





USA.gov is the U.S. government's official web portal to all federal, state and local government web resources and services.